Regional Weather Roundup
Issued by NWS

Home | Current Version | Previous Version | Text Only | Print | Product List | Glossary Off
Versions: 1 2 3 4 5 6 7 8 9 10 11 12 13 14 15 16 17 18 19 20 21 22 23 24 25 26 27 28 29 30 31 32 33 34 35 36 37 38 39 40 41 42 43 44 45 46 47 48 49 50

000
ASUS45 KABQ 061201
RWRNM
NEW MEXICO REGIONAL WEATHER ROUNDUP
NATIONAL WEATHER SERVICE ALBUQUERQUE NM
600 AM MDT FRI MAY 06 2016

NOTE: "FAIR" MEANS FEW OR NO CLOUDS BELOW 12,000 FEET AGL WITH NO
       SIGNIFICANT WEATHER OR OBSTRUCTIONS TO VISION.

      THIS PRODUCT IS RELEASED AS TWO VERSIONS.  ONE VERSION NEAR
      THE TOP OF THE HOUR CONTAINING PRELIMINARY DATA FROM ALBUQUERQUE
      AND OTHER STATIONS.  A FINAL VERSION WITH ADDITIONAL DATA IS
      ISSUED ABOUT 10 MINUTES AFTER THE HOUR.

NMZ501-503-504-510>518-061300-
NORTHWEST PLATEAU/NORTHCENTRAL MOUNTAINS

CITY           SKY/WX    TMP DP  RH WIND       PRES   REMARKS
FARMINGTON     MOCLDY    61  29  29 SE6       29.91S
6HR MIN TEMP:  59; 6HR MAX TEMP:  68;

SANTA FE       CLOUDY    60  25  26 SE17      30.05S
6HR MIN TEMP:  55; 6HR MAX TEMP:  61; 6HR PCP: TRACE;

TAOS           CLOUDY    45  28  53 W7        30.15R

$$
NMZ402-403-502-505>509-061300-
WESTCENTRAL MOUNTAINS/SOUTHWEST MOUNTAINS

CITY           SKY/WX    TMP DP  RH WIND       PRES   REMARKS
GALLUP         FAIR      44  29  55 SW3       30.00R
6HR MIN TEMP:  44; 6HR MAX TEMP:  64; 6HR PCP: TRACE;

GRANTS         FAIR      56  31  38 S14       30.01R
SILVER CITY      N/A     43  19  39 NW8       30.02R

$$
NMZ407-409-411-412-061300-
SOUTHERN DESERTS

CITY           SKY/WX    TMP DP  RH WIND       PRES   REMARKS
DEMING         FAIR      47  24  40 CALM      29.95R
6HR MIN TEMP:  47; 6HR MAX TEMP:  71;

ALAMOGORDO     FAIR      75  27  16 S24G33    29.94S
T OR C         FAIR      57  32  38 W6        29.93S
6HR MIN TEMP:  55; 6HR MAX TEMP:  71;


$$
NMZ519>523-061300-
CENTRAL VALLEYS/CENTRAL HIGHLANDS

CITY           SKY/WX    TMP DP  RH WIND       PRES   REMARKS
ALBUQUERQUE    FAIR      61  26  26 CALM      29.97F
6HR MIN TEMP:  60; 6HR MAX TEMP:  69;

DOUBLE EAGLE   PTCLDY    54  27  35 CALM      30.00S
CLINES CORNERS MOCLDY    51  21  30 SE15      30.10F
6HR MIN TEMP:  51; 6HR MAX TEMP:  56;

BELEN          FAIR      62  23  22 SE10      29.97R
6HR MIN TEMP:  60; 6HR MAX TEMP:  68;

SOCORRO        NOT AVBL

$$
NMZ524>526-539-540-061300-
SOUTHCENTRAL MOUNTAINS

CITY           SKY/WX    TMP DP  RH WIND       PRES   REMARKS
RUIDOSO        NOT AVBL

$$
NMZ527>531-061300-
NORTHEAST HIGHLANDS/NORTHEAST PLAINS

CITY           SKY/WX    TMP DP  RH WIND       PRES   REMARKS
LAS VEGAS      CLOUDY    50  26  39 SW7       30.17R
6HR MIN TEMP:  46; 6HR MAX TEMP:  53;

RATON          FAIR      44  28  53 N6        30.14S
6HR MIN TEMP:  42; 6HR MAX TEMP:  55;

CLAYTON        FAIR      55  29  36 W16       30.07R
6HR MIN TEMP:  44; 6HR MAX TEMP:  58;


$$
NMZ532>537-061300-
EASTCENTRAL PLAINS

CITY           SKY/WX    TMP DP  RH WIND       PRES   REMARKS
TUCUMCARI      FAIR      55  33  43 SW8       30.04S
6HR MIN TEMP:  51; 6HR MAX TEMP:  63;

CANNON AFB     NOT AVBL
CLOVIS AIRPORT FAIR      54  34  47 CALM      30.09S

$$
NMZ028-029-538-061300-
SOUTHEAST PLAINS

CITY           SKY/WX    TMP DP  RH WIND       PRES   REMARKS
ROSWELL        FAIR      55  29  36 N3        30.01R
6HR MIN TEMP:  52; 6HR MAX TEMP:  60;

ARTESIA        FAIR      55  27  33 CALM      30.01R
CARLSBAD       FAIR      59  31  34 S12       29.98R
6HR MIN TEMP:  58; 6HR MAX TEMP:  65;

HOBBS          PTCLDY    50  34  53 E8        30.05S


$$




USA.gov is the U.S. government's official web portal to all federal, state and local government web resources and services.